Location: Grust
(42.8833°N, 0.0333°W)
Time: 14:28:47
(UTC+00:00)

Cosmos 2297 Rocket - Pass Details

Date: 25 October 2020
Orbit: 838 x 845 km, 71.0° (Epoch: 24 November)

Event Time Altitude Azimuth Distance (km) Brightness Sun altitude
Rises 18:31:36 0° 336° (NNW) 3,413 5.7 -17.1°
Reaches altitude 10° 18:34:05 10° 339° (NNW) 2,474 4.9 -17.5°
Maximum altitude 18:39:45 72° 64° (ENE) 888 2.1 -18.6°
Enters shadow 18:44:35 14° 148° (SSE) 2,159 4.0 -19.5°
